Precipitable_Water
0.20 0.14 0.12 0.12 0.14 0.15 0.16 0.16 0.15 0.16 0.17 0.17 0.16 0.13 0.11 0.11 0.11 0.11 0.11 0.13 0.15 0.13 0.12 0.13 0.13 0.13 0.14 0.14 0.15 0.15 0.15 0.14 0.13 0.13 0.13 0.14 0.13 0.13 0.13 0.13 0.13 0.13 0.12 0.11 0.09 0.09 0.09 0.08 0.09 0.12 0.12 0.12 0.12 0.13 0.13 0.13 0.14 0.14 0.15 0.15 0.14 0.15 0.15 0.15 0.15 0.15 0.15 0.14 0.15 0.15 0.15 0.15 0.16 0.15 0.15 0.14 0.15 0.15 0.15 0.15 0.16 0.16 0.17 0.17 0.17 0.17
0.19 0.13 0.13 0.15 0.17 0.18 0.18 0.17 0.16 0.17 0.18 0.17 0.14 0.12 0.10 0.10 0.09 0.11 0.11 0.14 0.16 0.13 0.12 0.14 0.13 0.13 0.13 0.14 0.14 0.15 0.14 0.13 0.13 0.14 0.14 0.13 0.13 0.13 0.13 0.12 0.11 0.10 0.08 0.07 0.07 0.08 0.09 0.10 0.12 0.13 0.13 0.13 0.12 0.12 0.14 0.14 0.15 0.16 0.16 0.15 0.15 0.15 0.15 0.16 0.16 0.17 0.18 0.18 0.18 0.17 0.16 0.16 0.16 0.16 0.16 0.15 0.15 0.15 0.16 0.16 0.16 0.16 0.17 0.17 0.17 0.17
0.14 0.13 0.15 0.18 0.20 0.19 0.19 0.18 0.15 0.16 0.16 0.16 0.14 0.12 0.10 0.10 0.12 0.13 0.12 0.14 0.15 0.14 0.12 0.14 0.12 0.12 0.13 0.13 0.14 0.14 0.14 0.14 0.15 0.15 0.14 0.13 0.13 0.13 0.12 0.11 0.10 0.08 0.06 0.06 0.07 0.09 0.09 0.11 0.13 0.13 0.13 0.12 0.12 0.13 0.14 0.15 0.16 0.16 0.16 0.15 0.14 0.14 0.14 0.14 0.14 0.15 0.16 0.17 0.18 0.18 0.18 0.18 0.17 0.17 0.17 0.17 0.16 0.16 0.16 0.16 0.16 0.17 0.17 0.17 0.17 0.17
0.12 0.14 0.17 0.21 0.20 0.17 0.17 0.17 0.15 0.15 0.17 0.15 0.14 0.11 0.09 0.12 0.11 0.09 0.12 0.14 0.15 0.14 0.13 0.13 0.12 0.12 0.13 0.14 0.14 0.14 0.15 0.15 0.16 0.14 0.14 0.14 0.14 0.13 0.11 0.11 0.09 0.07 0.07 0.07 0.08 0.09 0.10 0.12 0.13 0.13 0.12 0.12 0.14 0.14 0.15 0.16 0.15 0.15 0.14 0.14 0.13 0.13 0.14 0.14 0.13 0.14 0.15 0.15 0.17 0.18 0.18 0.18 0.18 0.18 0.19 0.18 0.18 0.17 0.17 0.17 0.17 0.17 0.17 0.17 0.17 0.17
0.13 0.16 0.20 0.22 0.19 0.17 0.16 0.16 0.15 0.14 0.14 0.16 0.14 0.12 0.11 0.12 0.12 0.12 0.12 0.14 0.15 0.16 0.15 0.13 0.11 0.11 0.12 0.11 0.12 0.14 0.15 0.15 0.14 0.14 0.15 0.15 0.14 0.13 0.12 0.10 0.09 0.07 0.06 0.07 0.09 0.10 0.10 0.11 0.13 0.12 0.12 0.13 0.14 0.15 0.15 0.15 0.15 0.14 0.14 0.13 0.13 0.13 0.13 0.14 0.14 0.15 0.16 0.16 0.15 0.15 0.16 0.17 0.17 0.18 0.19 0.19 0.18 0.17 0.16 0.17 0.16 0.16 0.17 0.17 0.16 0.17
0.16 0.19 0.22 0.19 0.18 0.17 0.16 0.15 0.15 0.15 0.13 0.14 0.16 0.13 0.13 0.14 0.13 0.13 0.14 0.14 0.12 0.12 0.15 0.12 0.08 0.08 0.11 0.11 0.11 0.13 0.14 0.13 0.14 0.14 0.14 0.13 0.12 0.11 0.10 0.09 0.07 0.07 0.07 0.08 0.09 0.10 0.10 0.11 0.12 0.12 0.12 0.13 0.14 0.14 0.14 0.14 0.14 0.14 0.13 0.13 0.12 0.12 0.13 0.15 0.15 0.15 0.16 0.18 0.17 0.17 0.14 0.14 0.15 0.16 0.17 0.17 0.18 0.19 0.18 0.16 0.16 0.16 0.16 0.16 0.16 0.16
0.18 0.20 0.20 0.18 0.17 0.16 0.16 0.15 0.16 0.16 0.14 0.14 0.13 0.16 0.15 0.15 0.14 0.14 0.14 0.14 0.10 0.08 0.12 0.14 0.08 0.07 0.11 0.10 0.11 0.13 0.13 0.13 0.14 0.14 0.13 0.13 0.11 0.10 0.09 0.07 0.05 0.06 0.08 0.09 0.10 0.10 0.10 0.10 0.11 0.12 0.12 0.13 0.14 0.15 0.14 0.14 0.13 0.13 0.13 0.13 0.12 0.12 0.13 0.14 0.14 0.14 0.16 0.16 0.17 0.17 0.17 0.17 0.17 0.17 0.17 0.18 0.19 0.19 0.20 0.20 0.19 0.18 0.17 0.17 0.16 0.16
0.21 0.18 0.19 0.19 0.17 0.16 0.15 0.14 0.16 0.16 0.15 0.13 0.16 0.16 0.16 0.15 0.14 0.14 0.15 0.14 0.12 0.13 0.13 0.13 0.12 0.09 0.08 0.10 0.13 0.13 0.13 0.12 0.13 0.13 0.13 0.12 0.10 0.09 0.09 0.07 0.06 0.06 0.08 0.09 0.09 0.10 0.10 0.10 0.11 0.12 0.12 0.12 0.13 0.13 0.13 0.12 0.13 0.13 0.13 0.12 0.12 0.12 0.13 0.13 0.13 0.13 0.15 0.14 0.16 0.17 0.17 0.17 0.17 0.16 0.16 0.16 0.17 0.19 0.19 0.19 0.18 0.18 0.16 0.16 0.16 0.15
0.18 0.17 0.18 0.17 0.17 0.16 0.14 0.16 0.18 0.18 0.15 0.15 0.17 0.17 0.16 0.15 0.14 0.14 0.15 0.14 0.13 0.12 0.10 0.11 0.11 0.09 0.08 0.10 0.13 0.13 0.11 0.11 0.11 0.12 0.12 0.11 0.10 0.09 0.08 0.06 0.05 0.06 0.08 0.09 0.09 0.09 0.10 0.11 0.12 0.13 0.12 0.12 0.12 0.12 0.12 0.12 0.13 0.13 0.12 0.13 0.13 0.13 0.13 0.13 0.13 0.13 0.14 0.14 0.14 0.16 0.16 0.15 0.16 0.16 0.16 0.16 0.16 0.17 0.18 0.18 0.18 0.17 0.17 0.16 0.16 0.16
0.19 0.19 0.20 0.20 0.17 0.15 0.17 0.19 0.19 0.18 0.15 0.17 0.19 0.18 0.17 0.16 0.15 0.16 0.14 0.14 0.12 0.11 0.09 0.10 0.11 0.08 0.08 0.10 0.12 0.13 0.12 0.11 0.11 0.11 0.11 0.10 0.09 0.09 0.07 0.06 0.05 0.06 0.08 0.09 0.09 0.10 0.11 0.13 0.13 0.13 0.13 0.12 0.12 0.12 0.12 0.12 0.12 0.12 0.12 0.12 0.13 0.13 0.13 0.13 0.13 0.13 0.13 0.13 0.13 0.14 0.15 0.14 0.14 0.15 0.15 0.15 0.15 0.15 0.15 0.15 0.16 0.16 0.17 0.17 0.17 0.16
0.19 0.24 0.25 0.20 0.18 0.18 0.19 0.20 0.21 0.20 0.19 0.20 0.19 0.16 0.15 0.15 0.14 0.14 0.14 0.14 0.12 0.09 0.09 0.11 0.12 0.11 0.08 0.09 0.10 0.10 0.10 0.11 0.12 0.11 0.11 0.10 0.09 0.08 0.06 0.05 0.05 0.06 0.08 0.09 0.09 0.10 0.12 0.13 0.13 0.13 0.12 0.12 0.12 0.12 0.12 0.11 0.11 0.12 0.12 0.12 0.12 0.12 0.12 0.13 0.13 0.13 0.13 0.13 0.13 0.13 0.13 0.13 0.13 0.14 0.14 0.13 0.13 0.14 0.14 0.13 0.14 0.15 0.15 0.15 0.15 0.15
0.21 0.22 0.22 0.22 0.24 0.22 0.21 0.18 0.21 0.22 0.21 0.19 0.16 0.14 0.14 0.13 0.14 0.12 0.12 0.14 0.10 0.09 0.11 0.12 0.12 0.13 0.08 0.09 0.12 0.13 0.14 0.13 0.12 0.11 0.10 0.09 0.08 0.07 0.06 0.05 0.05 0.06 0.08 0.09 0.09 0.10 0.12 0.12 0.12 0.12 0.11 0.11 0.11 0.11 0.11 0.11 0.11 0.12 0.12 0.12 0.11 0.12 0.12 0.12 0.12 0.13 0.12 0.12 0.12 0.12 0.12 0.12 0.13 0.13 0.12 0.12 0.12 0.12 0.13 0.13 0.13 0.13 0.13 0.13 0.13 0.13
0.17 0.18 0.21 0.21 0.25 0.22 0.19 0.17 0.17 0.21 0.19 0.17 0.16 0.14 0.11 0.10 0.10 0.09 0.11 0.09 0.09 0.09 0.11 0.13 0.13 0.11 0.10 0.11 0.12 0.13 0.14 0.13 0.13 0.11 0.10 0.09 0.08 0.07 0.06 0.05 0.05 0.06 0.08 0.09 0.09 0.11 0.11 0.11 0.11 0.11 0.11 0.11 0.11 0.10 0.10 0.11 0.11 0.11 0.11 0.11 0.11 0.11 0.11 0.11 0.12 0.12 0.12 0.12 0.12 0.12 0.12 0.12 0.12 0.12 0.12 0.12 0.12 0.12 0.12 0.13 0.13 0.13 0.12 0.12 0.12 0.12
0.15 0.20 0.21 0.21 0.23 0.22 0.20 0.15 0.15 0.16 0.17 0.16 0.14 0.13 0.11 0.09 0.08 0.08 0.09 0.10 0.10 0.12 0.14 0.13 0.15 0.11 0.12 0.12 0.14 0.13 0.14 0.14 0.13 0.12 0.11 0.09 0.08 0.07 0.06 0.05 0.05 0.07 0.08 0.09 0.10 0.11 0.11 0.11 0.11 0.11 0.11 0.10 0.10 0.10 0.10 0.10 0.11 0.11 0.11 0.11 0.10 0.11 0.11 0.11 0.12 0.12 0.12 0.12 0.12 0.12 0.12 0.12 0.12 0.12 0.12 0.13 0.13 0.13 0.13 0.13 0.12 0.12 0.12 0.12 0.12 0.12
0.10 0.11 0.17 0.19 0.16 0.22 0.21 0.19 0.18 0.17 0.18 0.16 0.17 0.15 0.14 0.12 0.10 0.09 0.10 0.08 0.09 0.10 0.13 0.15 0.12 0.10 0.10 0.11 0.15 0.15 0.15 0.14 0.14 0.13 0.11 0.09 0.08 0.07 0.06 0.05 0.05 0.07 0.08 0.09 0.10 0.10 0.11 0.11 0.11 0.11 0.11 0.10 0.10 0.10 0.10 0.10 0.10 0.10 0.10 0.10 0.10 0.10 0.11 0.11 0.12 0.12 0.12 0.12 0.12 0.12 0.12 0.12 0.12 0.13 0.13 0.13 0.13 0.13 0.13 0.13 0.12 0.12 0.13 0.12 0.12 0.12
0.13 0.14 0.19 0.22 0.21 0.23 0.20 0.22 0.22 0.20 0.19 0.17 0.18 0.18 0.15 0.14 0.16 0.12 0.12 0.12 0.11 0.11 0.11 0.12 0.11 0.13 0.12 0.16 0.16 0.16 0.15 0.15 0.14 0.12 0.10 0.09 0.07 0.06 0.06 0.05 0.05 0.07 0.08 0.09 0.10 0.11 0.11 0.11 0.12 0.11 0.10 0.10 0.10 0.10 0.10 0.10 0.10 0.10 0.10 0.10 0.10 0.10 0.11 0.11 0.11 0.12 0.12 0.12 0.12 0.12 0.12 0.12 0.13 0.13 0.13 0.13 0.13 0.13 0.13 0.13 0.13 0.13 0.13 0.13 0.13 0.13
0.14 0.13 0.21 0.21 0.23 0.22 0.22 0.23 0.22 0.23 0.14 0.17 0.17 0.14 0.16 0.20 0.17 0.14 0.14 0.15 0.14 0.12 0.11 0.14 0.12 0.14 0.16 0.16 0.16 0.16 0.15 0.15 0.13 0.11 0.10 0.08 0.07 0.06 0.05 0.05 0.05 0.07 0.08 0.09 0.10 0.10 0.11 0.11 0.12 0.11 0.10 0.10 0.10 0.10 0.10 0.10 0.10 0.09 0.10 0.10 0.10 0.11 0.11 0.11 0.11 0.11 0.12 0.12 0.12 0.12 0.12 0.12 0.13 0.13 0.13 0.13 0.13 0.13 0.13 0.13 0.13 0.13 0.13 0.13 0.13 0.13
0.13 0.13 0.21 0.20 0.19 0.22 0.24 0.23 0.24 0.24 0.23 0.19 0.15 0.17 0.20 0.21 0.20 0.16 0.11 0.13 0.12 0.10 0.10 0.13 0.12 0.12 0.12 0.11 0.16 0.15 0.15 0.14 0.13 0.11 0.10 0.09 0.07 0.06 0.06 0.05 0.05 0.07 0.08 0.09 0.10 0.11 0.11 0.11 0.12 0.11 0.11 0.10 0.10 0.10 0.10 0.10 0.10 0.10 0.10 0.09 0.10 0.10 0.10 0.11 0.11 0.11 0.12 0.12 0.12 0.12 0.12 0.13 0.13 0.13 0.13 0.13 0.13 0.13 0.13 0.13 0.13 0.13 0.13 0.13 0.13 0.13
0.19 0.13 0.18 0.21 0.21 0.22 0.25 0.23 0.22 0.24 0.25 0.20 0.19 0.23 0.17 0.14 0.14 0.16 0.15 0.10 0.10 0.10 0.10 0.12 0.13 0.13 0.13 0.13 0.15 0.14 0.14 0.13 0.12 0.11 0.10 0.09 0.07 0.06 0.06 0.05 0.06 0.07 0.08 0.09 0.09 0.11 0.11 0.11 0.11 0.12 0.11 0.10 0.10 0.10 0.10 0.10 0.10 0.10 0.10 0.10 0.10 0.10 0.10 0.10 0.11 0.11 0.12 0.12 0.12 0.12 0.13 0.13 0.13 0.13 0.13 0.13 0.14 0.14 0.13 0.14 0.14 0.14 0.14 0.14 0.14 0.14
0.21 0.14 0.15 0.20 0.20 0.22 0.23 0.21 0.16 0.19 0.23 0.24 0.24 0.21 0.22 0.19 0.16 0.15 0.16 0.15 0.14 0.11 0.11 0.10 0.13 0.12 0.14 0.14 0.15 0.14 0.14 0.13 0.12 0.12 0.11 0.09 0.08 0.07 0.06 0.05 0.06 0.07 0.08 0.09 0.09 0.10 0.11 0.11 0.11 0.12 0.11 0.10 0.10 0.10 0.10 0.10 0.10 0.10 0.10 0.10 0.10 0.10 0.11 0.11 0.11 0.11 0.11 0.11 0.12 0.12 0.12 0.13 0.13 0.13 0.13 0.13 0.13 0.14 0.14 0.14 0.14 0.15 0.15 0.15 0.15 0.15
0.18 0.20 0.13 0.18 0.22 0.22 0.17 0.19 0.17 0.19 0.18 0.20 0.20 0.19 0.20 0.19 0.20 0.19 0.18 0.16 0.14 0.13 0.12 0.12 0.11 0.13 0.16 0.17 0.16 0.15 0.14 0.14 0.13 0.12 0.11 0.10 0.08 0.07 0.06 0.06 0.06 0.07 0.08 0.09 0.09 0.10 0.11 0.11 0.11 0.12 0.11 0.11 0.10 0.10 0.10 0.10 0.09 0.09 0.10 0.10 0.10 0.10 0.11 0.11 0.11 0.11 0.11 0.12 0.12 0.12 0.12 0.13 0.13 0.14 0.14 0.14 0.14 0.14 0.14 0.15 0.15 0.15 0.15 0.16 0.16 0.16
0.19 0.19 0.15 0.17 0.17 0.17 0.18 0.22 0.21 0.21 0.21 0.21 0.21 0.19 0.20 0.18 0.16 0.15 0.14 0.19 0.17 0.16 0.13 0.13 0.12 0.15 0.18 0.19 0.17 0.15 0.15 0.15 0.15 0.14 0.12 0.11 0.09 0.08 0.07 0.06 0.06 0.07 0.08 0.09 0.10 0.10 0.10 0.11 0.11 0.12 0.12 0.11 0.10 0.10 0.10 0.10 0.09 0.09 0.09 0.10 0.10 0.11 0.11 0.11 0.11 0.11 0.12 0.12 0.12 0.12 0.13 0.13 0.14 0.14 0.14 0.14 0.14 0.15 0.15 0.15 0.15 0.16 0.16 0.16 0.16 0.16
0.22 0.21 0.18 0.16 0.17 0.18 0.20 0.23 0.24 0.23 0.23 0.22 0.23 0.21 0.23 0.21 0.20 0.17 0.13 0.16 0.18 0.18 0.18 0.16 0.14 0.14 0.19 0.19 0.18 0.17 0.17 0.16 0.16 0.15 0.13 0.11 0.10 0.08 0.07 0.07 0.07 0.07 0.08 0.09 0.10 0.10 0.10 0.11 0.11 0.11 0.12 0.11 0.11 0.10 0.10 0.10 0.10 0.09 0.09 0.10 0.10 0.10 0.10 0.11 0.11 0.11 0.12 0.12 0.12 0.13 0.13 0.13 0.14 0.14 0.14 0.14 0.15 0.15 0.15 0.15 0.16 0.16 0.16 0.16 0.16 0.17
0.26 0.19 0.16 0.17 0.19 0.21 0.22 0.23 0.23 0.24 0.23 0.21 0.23 0.24 0.23 0.21 0.21 0.19 0.18 0.18 0.17 0.18 0.16 0.16 0.14 0.16 0.20 0.20 0.19 0.19 0.18 0.18 0.17 0.16 0.14 0.12 0.10 0.09 0.08 0.07 0.07 0.08 0.08 0.09 0.10 0.10 0.10 0.11 0.11 0.11 0.11 0.11 0.11 0.10 0.10 0.10 0.10 0.10 0.10 0.09 0.10 0.10 0.10 0.11 0.11 0.11 0.11 0.12 0.12 0.13 0.13 0.13 0.14 0.14 0.14 0.15 0.15 0.15 0.16 0.16 0.16 0.16 0.16 0.17 0.17 0.17
0.20 0.19 0.18 0.14 0.14 0.16 0.17 0.19 0.20 0.22 0.22 0.21 0.21 0.23 0.23 0.24 0.23 0.22 0.21 0.21 0.17 0.18 0.18 0.16 0.13 0.16 0.21 0.22 0.21 0.21 0.20 0.19 0.17 0.16 0.14 0.12 0.11 0.10 0.09 0.08 0.08 0.08 0.08 0.09 0.10 0.10 0.10 0.10 0.11 0.11 0.11 0.11 0.11 0.11 0.11 0.10 0.10 0.10 0.10 0.10 0.10 0.10 0.10 0.10 0.11 0.11 0.11 0.12 0.12 0.12 0.13 0.13 0.14 0.14 0.15 0.15 0.15 0.16 0.16 0.16 0.17 0.17 0.17 0.17 0.17 0.17
0.22 0.20 0.18 0.14 0.12 0.11 0.10 0.12 0.14 0.17 0.20 0.22 0.22 0.23 0.24 0.23 0.23 0.22 0.18 0.19 0.16 0.18 0.19 0.17 0.16 0.19 0.22 0.23 0.22 0.21 0.20 0.20 0.18 0.16 0.15 0.13 0.12 0.11 0.09 0.08 0.08 0.08 0.09 0.09 0.10 0.10 0.10 0.10 0.10 0.11 0.11 0.11 0.11 0.11 0.11 0.11 0.10 0.10 0.10 0.10 0.10 0.10 0.10 0.10 0.11 0.11 0.11 0.11 0.12 0.12 0.12 0.13 0.13 0.14 0.15 0.15 0.16 0.16 0.16 0.17 0.17 0.17 0.17 0.17 0.17 0.17
0.21 0.22 0.20 0.19 0.17 0.15 0.17 0.19 0.22 0.23 0.21 0.20 0.22 0.23 0.23 0.24 0.25 0.24 0.22 0.20 0.18 0.19 0.19 0.20 0.20 0.19 0.20 0.22 0.21 0.21 0.21 0.20 0.18 0.16 0.15 0.14 0.12 0.11 0.10 0.09 0.09 0.09 0.09 0.09 0.09 0.10 0.10 0.10 0.10 0.11 0.11 0.11 0.11 0.11 0.11 0.12 0.11 0.11 0.11 0.10 0.10 0.10 0.10 0.10 0.10 0.11 0.11 0.11 0.11 0.12 0.12 0.13 0.13 0.14 0.15 0.15 0.15 0.16 0.16 0.17 0.17 0.17 0.17 0.17 0.17 0.17
0.21 0.19 0.20 0.20 0.20 0.19 0.20 0.20 0.22 0.22 0.20 0.22 0.23 0.23 0.24 0.24 0.25 0.24 0.22 0.20 0.23 0.19 0.16 0.22 0.22 0.20 0.20 0.22 0.22 0.22 0.22 0.21 0.18 0.16 0.16 0.15 0.13 0.12 0.11 0.10 0.10 0.10 0.10 0.10 0.10 0.10 0.10 0.10 0.10 0.10 0.11 0.11 0.12 0.12 0.12 0.12 0.12 0.12 0.11 0.11 0.11 0.10 0.10 0.10 0.10 0.11 0.11 0.11 0.11 0.11 0.12 0.12 0.13 0.14 0.15 0.15 0.16 0.16 0.16 0.17 0.17 0.18 0.18 0.18 0.17 0.17
0.20 0.17 0.21 0.20 0.20 0.20 0.21 0.21 0.22 0.22 0.22 0.22 0.23 0.23 0.23 0.24 0.24 0.23 0.24 0.24 0.23 0.20 0.18 0.22 0.22 0.21 0.21 0.22 0.23 0.23 0.22 0.20 0.18 0.17 0.17 0.16 0.14 0.13 0.12 0.11 0.11 0.10 0.10 0.10 0.10 0.10 0.10 0.10 0.10 0.10 0.10 0.11 0.11 0.11 0.12 0.12 0.12 0.12 0.12 0.11 0.11 0.11 0.11 0.11 0.11 0.11 0.11 0.11 0.11 0.11 0.12 0.12 0.13 0.14 0.15 0.15 0.15 0.16 0.16 0.17 0.17 0.18 0.18 0.18 0.18 0.18
0.21 0.18 0.20 0.21 0.19 0.20 0.21 0.22 0.23 0.21 0.21 0.22 0.23 0.23 0.23 0.24 0.24 0.24 0.24 0.25 0.24 0.22 0.23 0.23 0.22 0.22 0.23 0.23 0.24 0.24 0.23 0.20 0.19 0.19 0.18 0.16 0.15 0.13 0.12 0.12 0.11 0.11 0.11 0.11 0.10 0.10 0.10 0.10 0.10 0.10 0.10 0.10 0.11 0.11 0.12 0.12 0.12 0.12 0.12 0.12 0.12 0.11 0.11 0.11 0.11 0.11 0.11 0.11 0.11 0.11 0.12 0.12 0.13 0.14 0.14 0.15 0.15 0.16 0.16 0.16 0.17 0.17 0.18 0.18 0.18 0.18
0.21 0.17 0.21 0.20 0.18 0.18 0.20 0.21 0.22 0.21 0.21 0.20 0.22 0.23 0.23 0.23 0.23 0.24 0.24 0.25 0.25 0.24 0.25 0.24 0.23 0.22 0.25 0.26 0.25 0.25 0.23 0.22 0.21 0.19 0.18 0.17 0.15 0.14 0.13 0.12 0.12 0.12 0.12 0.12 0.11 0.11 0.10 0.10 0.10 0.10 0.10 0.10 0.11 0.11 0.11 0.12 0.12 0.12 0.12 0.12 0.12 0.12 0.12 0.12 0.11 0.11 0.11 0.11 0.11 0.12 0.12 0.12 0.13 0.14 0.14 0.15 0.15 0.16 0.16 0.17 0.17 0.17 0.17 0.18 0.18 0.18
0.22 0.18 0.21 0.19 0.16 0.16 0.19 0.19 0.20 0.21 0.21 0.21 0.20 0.21 0.22 0.22 0.21 0.23 0.23 0.24 0.24 0.23 0.24 0.23 0.22 0.22 0.25 0.26 0.24 0.24 0.24 0.23 0.21 0.20 0.19 0.18 0.16 0.15 0.14 0.13 0.13 0.13 0.13 0.12 0.12 0.11 0.11 0.11 0.10 0.10 0.10 0.10 0.10 0.11 0.11 0.11 0.12 0.12 0.12 0.12 0.12 0.13 0.13 0.12 0.12 0.11 0.11 0.11 0.11 0.12 0.12 0.12 0.12 0.13 0.14 0.15 0.15 0.15 0.16 0.17 0.17 0.17 0.17 0.18 0.18 0.18
0.21 0.20 0.18 0.18 0.15 0.15 0.18 0.19 0.19 0.20 0.19 0.17 0.18 0.20 0.22 0.23 0.23 0.23 0.24 0.25 0.25 0.25 0.22 0.21 0.22 0.25 0.26 0.26 0.24 0.25 0.25 0.24 0.23 0.22 0.20 0.19 0.17 0.16 0.15 0.14 0.14 0.14 0.13 0.13 0.13 0.12 0.12 0.11 0.11 0.10 0.10 0.11 0.11 0.10 0.11 0.11 0.11 0.11 0.12 0.12 0.12 0.12 0.13 0.13 0.13 0.12 0.12 0.12 0.12 0.11 0.12 0.12 0.12 0.13 0.14 0.14 0.15 0.16 0.16 0.16 0.17 0.17 0.17 0.17 0.18 0.18
0.22 0.20 0.18 0.20 0.15 0.15 0.17 0.18 0.19 0.17 0.13 0.14 0.21 0.23 0.23 0.22 0.22 0.21 0.23 0.24 0.25 0.25 0.24 0.25 0.25 0.26 0.26 0.26 0.25 0.25 0.25 0.25 0.24 0.24 0.22 0.20 0.18 0.17 0.16 0.15 0.15 0.14 0.14 0.14 0.14 0.13 0.12 0.12 0.11 0.11 0.11 0.11 0.11 0.11 0.11 0.11 0.11 0.11 0.12 0.12 0.12 0.12 0.12 0.13 0.13 0.13 0.13 0.12 0.12 0.12 0.12 0.12 0.13 0.13 0.14 0.14 0.15 0.15 0.16 0.16 0.16 0.17 0.17 0.17 0.18 0.18
0.21 0.20 0.19 0.20 0.17 0.15 0.17 0.17 0.14 0.12 0.13 0.19 0.22 0.23 0.23 0.23 0.22 0.21 0.23 0.24 0.24 0.25 0.25 0.24 0.25 0.26 0.27 0.26 0.26 0.26 0.26 0.26 0.27 0.26 0.23 0.21 0.20 0.18 0.17 0.16 0.15 0.15 0.15 0.15 0.14 0.14 0.13 0.13 0.12 0.11 0.11 0.11 0.11 0.11 0.11 0.11 0.11 0.11 0.11 0.11 0.12 0.12 0.12 0.12 0.13 0.13 0.13 0.13 0.13 0.13 0.12 0.12 0.13 0.13 0.14 0.15 0.15 0.15 0.16 0.16 0.16 0.17 0.17 0.17 0.17 0.18
0.20 0.20 0.20 0.18 0.18 0.18 0.16 0.15 0.11 0.11 0.17 0.20 0.20 0.21 0.22 0.22 0.22 0.21 0.20 0.23 0.24 0.25 0.25 0.24 0.26 0.27 0.27 0.26 0.27 0.27 0.27 0.27 0.27 0.26 0.24 0.22 0.21 0.20 0.18 0.17 0.16 0.16 0.15 0.15 0.15 0.15 0.14 0.13 0.13 0.12 0.12 0.12 0.11 0.11 0.11 0.11 0.11 0.11 0.11 0.11 0.11 0.12 0.12 0.12 0.13 0.13 0.13 0.13 0.14 0.13 0.13 0.13 0.13 0.13 0.14 0.14 0.15 0.16 0.16 0.16 0.16 0.16 0.17 0.17 0.18 0.18
0.23 0.22 0.20 0.17 0.19 0.14 0.15 0.15 0.14 0.17 0.16 0.17 0.17 0.19 0.20 0.18 0.19 0.18 0.16 0.18 0.23 0.24 0.24 0.25 0.26 0.27 0.26 0.26 0.27 0.27 0.27 0.26 0.26 0.25 0.25 0.23 0.22 0.21 0.19 0.18 0.18 0.17 0.16 0.16 0.16 0.15 0.15 0.14 0.14 0.13 0.12 0.12 0.12 0.11 0.11 0.11 0.11 0.11 0.11 0.11 0.11 0.11 0.12 0.12 0.12 0.13 0.13 0.13 0.13 0.14 0.14 0.14 0.14 0.14 0.14 0.14 0.15 0.15 0.16 0.16 0.16 0.17 0.17 0.17 0.17 0.18
0.25 0.20 0.21 0.18 0.16 0.18 0.15 0.13 0.13 0.12 0.11 0.14 0.17 0.20 0.21 0.21 0.21 0.21 0.18 0.16 0.22 0.23 0.24 0.25 0.25 0.26 0.26 0.26 0.26 0.27 0.26 0.24 0.24 0.25 0.25 0.24 0.23 0.21 0.20 0.20 0.19 0.18 0.18 0.17 0.17 0.16 0.16 0.15 0.15 0.14 0.13 0.13 0.12 0.12 0.11 0.11 0.11 0.11 0.11 0.11 0.11 0.11 0.11 0.12 0.12 0.13 0.13 0.13 0.13 0.14 0.14 0.14 0.14 0.14 0.14 0.14 0.14 0.15 0.16 0.16 0.17 0.17 0.17 0.17 0.17 0.18
0.25 0.24 0.22 0.19 0.17 0.17 0.16 0.14 0.13 0.11 0.12 0.17 0.18 0.19 0.21 0.22 0.21 0.21 0.18 0.14 0.19 0.21 0.23 0.24 0.24 0.24 0.25 0.25 0.26 0.26 0.24 0.23 0.24 0.25 0.25 0.24 0.23 0.22 0.21 0.20 0.19 0.19 0.18 0.18 0.17 0.16 0.16 0.16 0.16 0.15 0.14 0.13 0.12 0.12 0.12 0.11 0.11 0.11 0.11 0.11 0.11 0.11 0.11 0.11 0.12 0.12 0.13 0.13 0.14 0.14 0.14 0.14 0.15 0.15 0.15 0.15 0.15 0.15 0.16 0.16 0.16 0.17 0.17 0.17 0.18 0.18
0.22 0.21 0.21 0.18 0.17 0.17 0.16 0.14 0.12 0.15 0.13 0.17 0.19 0.20 0.21 0.22 0.22 0.19 0.12 0.12 0.18 0.21 0.23 0.23 0.23 0.24 0.25 0.26 0.26 0.25 0.25 0.23 0.25 0.25 0.25 0.24 0.23 0.22 0.21 0.20 0.20 0.19 0.19 0.19 0.18 0.18 0.17 0.17 0.16 0.15 0.14 0.14 0.13 0.13 0.12 0.12 0.11 0.11 0.11 0.11 0.11 0.11 0.11 0.11 0.12 0.12 0.13 0.13 0.14 0.14 0.14 0.14 0.14 0.15 0.15 0.15 0.16 0.16 0.16 0.16 0.17 0.17 0.17 0.17 0.17 0.18
0.19 0.20 0.20 0.17 0.17 0.17 0.16 0.15 0.16 0.15 0.19 0.20 0.20 0.21 0.21 0.22 0.20 0.14 0.11 0.15 0.20 0.21 0.22 0.23 0.23 0.24 0.25 0.25 0.26 0.24 0.26 0.27 0.27 0.26 0.25 0.24 0.23 0.22 0.22 0.22 0.21 0.20 0.20 0.19 0.19 0.18 0.18 0.17 0.16 0.16 0.15 0.14 0.14 0.13 0.13 0.12 0.11 0.11 0.11 0.11 0.10 0.10 0.11 0.11 0.12 0.12 0.12 0.13 0.13 0.14 0.14 0.14 0.15 0.15 0.15 0.15 0.16 0.16 0.17 0.17 0.17 0.17 0.17 0.17 0.18 0.18
0.19 0.20 0.19 0.19 0.17 0.16 0.17 0.15 0.14 0.16 0.19 0.20 0.21 0.22 0.22 0.20 0.14 0.13 0.18 0.22 0.22 0.22 0.22 0.23 0.23 0.24 0.25 0.25 0.26 0.26 0.27 0.27 0.27 0.26 0.25 0.25 0.24 0.23 0.22 0.22 0.22 0.21 0.21 0.20 0.20 0.19 0.18 0.17 0.17 0.16 0.16 0.15 0.15 0.14 0.13 0.12 0.12 0.11 0.11 0.11 0.10 0.11 0.11 0.11 0.11 0.12 0.12 0.12 0.13 0.13 0.14 0.14 0.15 0.15 0.15 0.15 0.16 0.16 0.16 0.17 0.17 0.18 0.18 0.18 0.18 0.17
0.19 0.17 0.16 0.16 0.19 0.19 0.18 0.15 0.14 0.11 0.16 0.22 0.21 0.21 0.22 0.17 0.18 0.22 0.23 0.23 0.23 0.23 0.23 0.23 0.24 0.25 0.25 0.25 0.26 0.27 0.27 0.27 0.26 0.26 0.25 0.25 0.24 0.23 0.23 0.22 0.22 0.21 0.21 0.20 0.20 0.19 0.18 0.17 0.17 0.17 0.16 0.16 0.15 0.14 0.14 0.13 0.12 0.11 0.11 0.11 0.11 0.11 0.11 0.11 0.11 0.11 0.11 0.12 0.12 0.13 0.13 0.14 0.15 0.15 0.15 0.15 0.16 0.16 0.16 0.16 0.17 0.17 0.18 0.18 0.18 0.18
0.24 0.18 0.17 0.19 0.21 0.16 0.16 0.14 0.14 0.17 0.21 0.23 0.23 0.19 0.22 0.24 0.26 0.26 0.25 0.22 0.24 0.24 0.24 0.24 0.25 0.26 0.26 0.26 0.26 0.27 0.27 0.27 0.26 0.26 0.25 0.25 0.24 0.24 0.24 0.23 0.23 0.22 0.21 0.21 0.20 0.19 0.19 0.18 0.17 0.17 0.17 0.16 0.16 0.15 0.14 0.13 0.12 0.11 0.11 0.11 0.11 0.11 0.11 0.11 0.11 0.11 0.11 0.11 0.12 0.12 0.13 0.13 0.14 0.15 0.15 0.15 0.16 0.16 0.16 0.16 0.16 0.17 0.17 0.17 0.17 0.17
0.24 0.21 0.22 0.18 0.23 0.20 0.18 0.18 0.21 0.24 0.25 0.25 0.25 0.25 0.26 0.28 0.29 0.28 0.26 0.25 0.24 0.24 0.25 0.24 0.25 0.26 0.27 0.27 0.27 0.28 0.27 0.28 0.27 0.26 0.25 0.25 0.24 0.24 0.24 0.24 0.23 0.22 0.22 0.21 0.21 0.20 0.19 0.18 0.17 0.17 0.17 0.16 0.16 0.15 0.14 0.14 0.12 0.12 0.11 0.11 0.11 0.11 0.11 0.11 0.11 0.11 0.11 0.11 0.11 0.12 0.12 0.13 0.14 0.14 0.15 0.15 0.15 0.15 0.16 0.16 0.16 0.16 0.16 0.16 0.16 0.17
0.26 0.26 0.25 0.23 0.21 0.25 0.25 0.24 0.25 0.25 0.26 0.27 0.28 0.29 0.29 0.29 0.30 0.30 0.28 0.26 0.26 0.27 0.26 0.26 0.26 0.27 0.27 0.28 0.27 0.28 0.29 0.29 0.28 0.27 0.26 0.25 0.25 0.25 0.25 0.24 0.24 0.24 0.23 0.22 0.21 0.20 0.19 0.19 0.18 0.17 0.17 0.16 0.16 0.15 0.15 0.14 0.13 0.12 0.12 0.12 0.11 0.11 0.11 0.10 0.10 0.10 0.10 0.11 0.11 0.11 0.12 0.12 0.13 0.14 0.14 0.15 0.15 0.15 0.16 0.16 0.16 0.16 0.16 0.16 0.16 0.16
0.25 0.26 0.24 0.21 0.23 0.22 0.18 0.23 0.24 0.25 0.26 0.27 0.28 0.30 0.31 0.32 0.31 0.31 0.29 0.28 0.28 0.28 0.28 0.28 0.27 0.27 0.28 0.28 0.28 0.29 0.30 0.30 0.29 0.28 0.27 0.26 0.26 0.25 0.25 0.24 0.24 0.24 0.23 0.22 0.22 0.21 0.20 0.19 0.18 0.17 0.17 0.16 0.16 0.16 0.15 0.14 0.14 0.13 0.12 0.12 0.11 0.11 0.11 0.10 0.10 0.10 0.10 0.10 0.11 0.11 0.11 0.12 0.13 0.13 0.14 0.14 0.14 0.15 0.15 0.16 0.16 0.16 0.16 0.16 0.16 0.16
0.22 0.27 0.23 0.23 0.23 0.21 0.21 0.23 0.26 0.28 0.28 0.29 0.30 0.29 0.29 0.31 0.32 0.31 0.31 0.30 0.29 0.29 0.29 0.29 0.28 0.28 0.28 0.28 0.29 0.30 0.30 0.31 0.31 0.30 0.29 0.28 0.27 0.27 0.26 0.25 0.25 0.25 0.24 0.23 0.23 0.22 0.21 0.19 0.18 0.18 0.17 0.16 0.16 0.16 0.15 0.15 0.14 0.13 0.13 0.12 0.11 0.11 0.11 0.10 0.10 0.10 0.10 0.10 0.11 0.11 0.11 0.11 0.12 0.13 0.13 0.14 0.14 0.14 0.14 0.15 0.15 0.15 0.15 0.15 0.16 0.16
0.26 0.27 0.22 0.23 0.21 0.23 0.24 0.24 0.27 0.28 0.28 0.28 0.29 0.31 0.31 0.31 0.30 0.30 0.31 0.31 0.31 0.30 0.29 0.29 0.29 0.29 0.29 0.29 0.30 0.30 0.30 0.31 0.32 0.31 0.30 0.29 0.28 0.28 0.27 0.26 0.26 0.25 0.25 0.24 0.23 0.22 0.21 0.20 0.19 0.18 0.17 0.17 0.16 0.16 0.15 0.15 0.14 0.14 0.13 0.13 0.12 0.11 0.11 0.10 0.10 0.10 0.10 0.10 0.10 0.11 0.11 0.12 0.12 0.12 0.13 0.13 0.14 0.14 0.14 0.14 0.15 0.15 0.16 0.17 0.17 0.17
0.26 0.23 0.26 0.24 0.21 0.21 0.21 0.22 0.27 0.24 0.22 0.25 0.27 0.30 0.31 0.31 0.31 0.30 0.30 0.30 0.32 0.32 0.31 0.30 0.30 0.30 0.29 0.30 0.30 0.30 0.31 0.32 0.32 0.32 0.31 0.31 0.30 0.29 0.28 0.28 0.27 0.26 0.25 0.25 0.24 0.23 0.22 0.21 0.20 0.19 0.18 0.17 0.17 0.16 0.15 0.15 0.15 0.14 0.14 0.13 0.12 0.12 0.11 0.10 0.10 0.10 0.10 0.10 0.10 0.10 0.11 0.11 0.11 0.12 0.12 0.13 0.13 0.13 0.13 0.14 0.15 0.15 0.15 0.16 0.17 0.18
0.25 0.25 0.25 0.23 0.22 0.21 0.24 0.26 0.27 0.27 0.25 0.25 0.27 0.30 0.30 0.31 0.30 0.30 0.30 0.31 0.32 0.33 0.33 0.32 0.30 0.29 0.29 0.30 0.30 0.30 0.31 0.32 0.32 0.33 0.32 0.32 0.31 0.30 0.30 0.29 0.28 0.27 0.26 0.26 0.24 0.23 0.22 0.21 0.20 0.19 0.18 0.18 0.17 0.16 0.16 0.15 0.15 0.14 0.14 0.13 0.13 0.12 0.11 0.10 0.10 0.10 0.10 0.10 0.10 0.10 0.10 0.11 0.11 0.11 0.12 0.12 0.12 0.12 0.13 0.13 0.14 0.14 0.15 0.16 0.16 0.17
Wind_Speed
19 19 19 20 21 21 22 23 24 23 21 22 22 24 27 27 26 27 28 28 29 30 29 27 28 30 31 33 33 34 34 34 36 37 38 39 42 44 46 47 47 47 46 47 45 42 40 39 36 33 32 31 32 32 32 31 31 31 31 31 31 32 33 33 33 34 35 36 38 40 41 43 44 45 45 46 46 46 46 46 47 47 48 48 48 48
19 20 20 21 21 20 21 23 25 25 22 21 22 25 28 27 27 28 27 28 29 28 27 26 28 30 31 32 33 33 34 35 36 37 38 40 43 44 46 48 48 48 49 48 45 41 40 39 35 32 32 32 32 33 32 31 32 32 32 33 34 34 34 34 35 35 35 36 37 38 39 40 42 43 45 45 45 46 46 47 47 48 48 48 47 47
19 21 21 21 22 20 20 22 26 26 23 21 23 26 28 28 28 27 26 28 28 27 26 26 28 30 31 32 33 34 34 35 36 36 38 41 43 45 47 48 49 50 50 48 45 42 40 38 34 32 33 33 33 33 32 32 32 33 33 34 34 35 35 35 36 37 37 37 38 38 38 38 39 40 42 44 45 46 46 47 47 48 48 47 47 47
20 21 21 21 22 22 21 23 25 25 23 22 24 27 28 28 28 26 28 29 28 27 26 27 29 30 30 31 32 33 33 34 35 36 38 40 43 45 47 49 50 51 50 47 44 43 41 38 34 33 33 33 33 33 33 33 34 33 33 34 35 35 35 35 36 36 37 37 37 37 37 37 37 37 37 39 42 44 44 45 45 45 45 46 46 47
19 20 22 22 22 23 22 23 25 25 24 22 24 27 28 28 27 27 28 30 29 27 26 28 30 29 29 30 32 33 33 34 35 37 39 41 43 46 47 48 50 51 49 47 45 43 41 39 35 34 34 34 33 33 34 35 35 35 35 36 36 35 35 34 34 34 34 34 34 35 35 35 35 35 34 35 36 38 41 42 42 42 43 44 46 47
18 19 21 22 22 24 23 23 24 24 25 23 24 28 28 27 27 27 28 30 29 27 26 29 30 29 29 30 32 33 34 34 35 36 39 41 44 46 47 49 50 49 47 46 44 43 42 39 37 35 35 35 34 34 35 36 36 36 36 36 36 35 34 33 32 32 32 31 31 31 32 32 32 32 32 33 33 33 35 38 41 42 43 44 44 45
18 19 21 22 22 24 24 23 23 24 25 25 26 28 26 25 26 26 27 28 27 27 27 28 30 31 30 30 30 32 33 34 35 36 39 41 44 46 47 49 51 48 47 46 44 43 42 40 38 37 36 35 35 36 36 37 36 36 36 36 36 35 33 32 31 31 30 29 29 29 29 29 29 30 30 32 32 32 32 33 36 38 41 42 43 44
18 19 21 22 23 23 24 23 24 24 25 25 28 29 27 26 25 24 26 26 26 28 27 26 30 31 29 29 30 31 33 34 34 37 39 42 45 46 47 50 50 47 46 45 44 43 43 41 39 37 36 37 37 37 37 37 37 36 36 36 35 34 32 31 30 29 28 27 27 27 26 26 27 28 29 30 31 32 32 32 33 35 37 39 41 43
18 19 20 22 23 23 24 24 24 24 24 26 29 29 27 26 25 23 24 24 25 27 26 27 32 31 28 29 30 31 32 33 35 38 40 42 45 46 48 50 49 46 46 45 44 43 43 41 40 38 38 38 38 37 37 37 37 37 36 36 34 33 30 29 28 27 26 26 26 25 25 25 26 26 27 28 29 31 31 32 33 35 36 38 40 42
18 18 19 21 23 24 24 24 24 23 24 27 29 30 27 25 24 22 22 24 25 25 25 29 32 30 29 30 29 30 32 34 37 39 40 43 45 46 48 49 48 46 45 44 44 44 43 42 40 40 39 39 38 38 37 37 37 37 36 35 33 32 30 28 27 26 25 24 24 24 24 24 24 25 25 26 27 28 30 32 33 35 37 38 39 41
17 18 19 20 22 24 24 24 24 22 25 28 30 31 28 24 24 22 22 23 24 24 24 29 32 29 29 29 29 31 33 34 37 39 40 43 45 46 48 48 47 46 44 44 44 44 43 42 41 41 40 40 39 38 38 38 37 36 34 33 33 31 29 27 26 25 24 23 23 23 23 23 24 24 24 24 25 27 28 30 32 34 35 37 38 40
18 17 19 20 22 25 25 25 23 21 25 28 29 30 28 25 24 23 23 23 23 24 25 29 32 28 26 28 30 32 33 34 36 38 41 43 45 47 48 47 46 45 44 44 44 43 43 43 42 41 41 41 40 39 39 38 36 35 34 33 32 31 29 27 25 24 23 23 22 22 22 22 23 23 24 24 25 26 27 29 30 32 33 35 37 38
19 18 19 20 22 25 26 26 24 22 25 28 29 30 28 25 25 25 24 23 22 23 25 31 33 28 26 28 30 31 33 35 37 38 40 43 45 46 47 47 45 44 44 44 44 43 43 43 42 42 42 41 40 40 39 38 36 35 33 32 31 30 29 27 25 24 23 22 22 22 21 21 22 22 23 24 24 25 25 27 28 30 31 33 35 36
20 19 20 21 23 25 26 25 25 24 26 28 30 30 28 26 27 27 26 25 24 24 28 32 31 27 27 29 30 32 33 34 36 38 40 42 45 46 47 46 44 43 44 44 44 43 43 43 43 42 41 41 41 40 40 38 37 35 33 32 30 29 28 27 25 24 22 22 21 21 21 21 21 21 21 22 22 23 24 25 27 28 30 32 33 35
20 19 20 22 23 25 25 24 24 25 25 26 28 28 26 25 25 25 25 26 27 28 31 31 27 26 29 29 30 31 31 33 36 38 40 42 44 45 45 45 44 43 43 44 43 42 42 44 43 41 41 41 40 40 39 38 37 35 33 32 30 29 28 27 25 24 23 22 21 21 21 21 20 20 21 21 22 23 24 25 27 28 29 30 32 33
21 19 20 22 22 24 24 23 24 25 24 24 26 26 26 25 23 23 24 25 28 30 29 28 26 26 29 29 30 30 31 34 37 39 40 42 44 44 45 44 43 42 43 44 44 42 42 43 42 41 41 41 40 40 39 39 37 35 33 31 30 28 27 27 25 24 23 22 22 21 21 21 20 20 21 22 23 24 24 26 26 27 28 29 29 30
21 20 19 21 23 24 24 23 24 25 24 24 25 26 26 24 24 25 26 26 27 27 26 27 28 28 29 30 30 30 33 36 38 39 41 42 44 44 44 44 43 42 42 43 44 43 42 43 41 40 40 40 39 39 39 39 37 35 33 31 29 28 27 27 26 24 23 23 22 22 21 21 21 21 22 23 23 24 25 26 26 27 27 28 28 28
22 22 20 20 23 24 23 22 24 25 25 24 24 26 26 24 24 25 26 27 27 27 26 27 30 30 29 30 30 32 35 37 38 39 40 42 43 43 43 43 42 42 41 42 44 43 42 41 40 41 41 39 38 37 38 39 37 35 34 31 29 28 28 27 26 25 24 23 23 22 22 22 22 22 23 23 24 25 25 26 26 27 27 27 27 26
22 22 21 21 22 23 22 22 23 24 26 25 23 25 25 24 24 26 26 26 26 28 28 28 29 29 28 29 32 34 36 37 38 39 40 42 43 43 43 43 42 42 41 41 42 42 41 39 40 41 40 38 37 37 38 38 36 35 33 32 30 29 27 27 26 25 25 24 23 22 22 22 22 23 23 24 24 25 26 26 27 26 26 25 25 24
23 21 22 23 23 23 22 22 22 23 25 25 24 25 25 24 24 25 24 24 25 27 28 29 29 28 27 30 33 34 36 37 38 40 41 42 43 43 43 42 42 41 41 41 42 42 41 40 40 41 39 37 37 38 38 37 36 35 33 32 31 29 28 27 26 26 25 24 23 23 23 23 23 23 23 24 24 25 26 26 27 26 26 25 23 22
23 21 22 24 24 23 23 23 23 23 23 24 25 25 25 25 25 25 24 23 24 25 26 28 29 28 29 31 32 33 35 36 38 40 41 42 43 43 42 42 41 41 40 40 42 42 41 40 41 40 38 38 38 38 37 36 35 34 34 33 31 30 28 27 26 26 25 25 24 23 23 23 23 23 24 24 24 25 26 26 26 26 25 24 23 21
23 22 23 25 25 23 23 24 24 24 22 23 24 24 24 25 25 25 25 24 23 24 25 26 28 31 31 31 31 33 35 36 38 39 41 42 43 42 42 41 41 40 40 40 41 42 41 40 41 39 38 38 38 37 37 35 34 33 33 33 32 30 28 27 26 26 25 25 25 24 24 23 23 23 24 24 24 25 25 26 26 26 25 24 23 21
23 22 24 26 25 24 24 24 24 24 24 23 23 23 24 24 24 24 24 24 24 25 26 25 26 30 31 30 31 34 35 36 38 39 41 42 42 42 41 41 40 39 39 39 40 41 41 40 39 38 38 38 37 36 36 35 34 33 33 33 32 30 29 28 27 26 25 25 25 25 24 24 24 24 24 24 24 25 25 25 25 25 25 24 23 22
23 22 25 27 26 24 24 24 24 25 25 25 24 23 24 24 24 24 25 26 25 25 26 25 25 29 31 30 32 34 36 37 38 39 41 42 42 41 41 40 40 39 39 39 40 40 40 40 39 38 38 37 36 36 36 35 35 34 33 32 32 31 30 28 27 26 26 25 25 25 25 25 24 25 25 24 24 25 25 26 26 25 25 24 23 21
23 23 25 27 27 25 25 25 25 25 26 26 25 24 24 24 25 25 25 26 25 24 24 24 26 29 31 32 34 36 37 38 37 38 40 41 41 41 40 40 39 39 39 39 39 39 40 40 40 39 37 36 36 36 35 34 34 34 33 32 31 31 30 29 28 27 26 26 26 26 25 25 25 25 25 25 25 25 25 25 26 26 25 24 23 21
23 23 24 25 25 26 26 26 27 27 27 27 25 23 23 23 23 25 25 25 25 25 23 23 29 33 34 34 35 36 37 37 37 38 39 40 41 40 40 40 39 39 39 38 38 39 39 40 41 40 37 36 37 36 34 33 34 34 33 32 31 31 30 30 28 27 27 26 26 26 26 26 26 25 25 25 25 25 25 25 26 26 25 25 23 22
23 24 23 23 23 24 26 27 28 28 28 28 25 23 23 23 23 24 25 24 25 27 26 26 31 36 37 36 36 36 37 37 37 38 39 40 40 40 40 40 39 39 39 38 38 38 39 40 41 40 38 37 37 35 34 34 34 34 33 32 31 31 30 30 29 28 27 26 26 26 26 26 26 26 26 25 25 25 25 25 25 26 25 25 24 23
24 24 23 23 24 26 28 29 29 28 28 28 26 23 22 22 22 23 24 25 26 27 29 30 30 34 38 38 37 37 37 37 37 38 39 39 40 40 40 40 39 39 39 39 38 38 38 39 40 40 39 37 36 35 35 35 34 33 32 32 31 31 30 30 30 29 28 27 26 26 26 26 26 26 26 25 25 25 25 25 25 25 25 24 24 23
24 25 25 24 26 28 28 28 28 27 27 27 26 24 22 21 21 22 25 27 26 26 30 33 32 34 38 37 36 37 37 36 37 38 38 39 40 40 40 39 39 39 39 38 38 38 38 39 39 39 39 38 36 35 35 35 34 33 33 32 31 31 30 30 30 30 29 28 27 26 26 26 26 26 26 25 26 25 25 25 24 24 24 24 23 23
24 25 26 26 28 29 28 28 28 27 27 27 25 25 24 23 22 23 26 27 26 28 32 35 35 36 36 35 36 37 36 36 37 37 38 39 40 40 40 39 39 39 38 38 38 38 38 39 39 39 38 38 37 36 35 35 34 33 33 32 32 31 30 30 30 30 29 28 28 27 26 26 25 25 25 25 25 25 25 24 24 24 24 24 23 23
24 25 26 27 29 30 28 27 27 27 27 27 26 25 25 25 24 25 27 27 27 30 32 33 35 36 34 33 35 35 35 36 37 38 38 39 39 39 39 39 38 38 38 38 38 38 38 38 39 39 38 38 38 37 36 34 34 33 33 33 32 31 31 30 30 30 29 28 28 27 27 26 25 25 25 25 25 25 25 24 24 23 23 23 23 23
24 26 27 28 29 29 28 29 29 29 28 27 26 26 25 25 25 25 26 26 26 29 31 31 33 34 33 32 33 35 36 37 37 38 38 38 38 39 39 38 38 37 38 38 39 38 38 38 39 39 38 38 38 37 36 35 34 33 33 33 32 32 31 31 30 29 29 29 28 28 27 26 25 25 25 25 25 25 25 24 24 23 23 23 23 23
24 26 28 28 28 29 29 30 31 29 27 25 26 26 25 25 26 26 26 26 26 28 30 31 32 33 33 34 35 36 36 36 37 38 38 38 38 38 38 38 37 37 38 38 38 39 38 38 38 38 38 37 37 37 36 36 35 34 33 33 33 32 32 31 30 29 29 29 28 28 27 27 26 25 25 24 24 24 24 24 24 23 23 23 23 22
24 25 26 26 27 29 30 32 30 26 24 25 26 25 24 25 26 27 28 28 27 28 29 31 32 33 34 35 36 36 36 37 37 37 37 38 38 38 37 37 37 37 38 38 38 38 38 38 38 38 38 37 37 37 36 36 35 34 33 33 33 32 32 32 31 30 29 29 28 28 28 27 26 26 25 25 24 24 24 24 23 23 22 22 22 22
23 24 25 25 26 28 30 30 27 24 24 25 25 26 26 27 28 29 30 30 29 29 30 31 33 34 35 35 36 36 37 37 38 38 38 38 38 37 36 36 37 37 38 38 38 38 38 38 39 39 38 37 37 36 36 36 35 35 34 33 33 32 32 32 31 30 30 29 28 28 28 27 27 26 25 25 24 24 24 24 23 23 22 21 21 21
23 24 25 25 25 26 28 26 24 26 28 26 25 27 28 28 29 31 32 31 29 28 30 31 33 35 35 36 36 37 38 38 38 38 38 38 37 35 36 36 37 37 37 38 38 38 38 38 38 38 38 37 37 36 36 36 36 35 35 34 33 33 32 32 31 31 30 30 29 29 28 28 27 26 26 25 25 24 24 23 23 22 21 21 21 21
22 23 24 25 24 24 27 27 26 28 29 27 27 28 28 29 29 29 32 32 28 27 29 31 33 34 34 35 36 37 38 39 39 39 38 37 35 35 35 36 36 37 37 37 38 37 38 38 38 38 37 37 36 36 36 36 35 36 36 35 34 33 32 32 31 31 31 30 30 29 29 28 27 27 26 26 25 25 24 23 23 22 21 21 21 20
22 23 23 24 24 24 26 28 27 27 26 26 28 28 28 29 30 29 31 33 30 29 30 31 33 34 34 35 36 36 37 39 39 38 37 36 35 35 36 36 36 37 37 37 37 37 37 38 38 38 37 37 37 36 36 36 35 35 36 35 35 34 33 32 31 31 31 31 30 30 29 28 28 27 27 26 26 25 25 24 23 22 21 20 20 20
22 24 24 23 25 25 25 25 24 24 25 27 27 28 28 29 30 30 31 33 32 31 30 31 32 33 34 34 35 35 36 38 39 38 37 36 36 36 37 37 37 37 37 37 37 37 37 37 38 37 37 37 37 37 36 36 36 35 35 35 35 34 33 33 32 31 31 31 31 30 30 29 28 27 27 26 26 25 25 24 23 22 21 20 20 21
22 23 23 23 24 25 24 24 23 24 26 27 26 27 28 29 29 30 31 33 34 32 31 31 32 33 33 34 34 34 34 37 39 39 37 37 37 37 37 38 37 37 37 37 37 37 37 37 37 37 37 37 37 36 36 36 36 35 35 35 35 34 34 33 32 32 31 31 31 30 30 29 29 27 27 26 26 25 25 24 23 22 21 21 21 21
22 23 22 23 24 24 23 24 25 26 27 27 26 26 27 28 30 30 32 33 33 32 31 31 32 32 33 33 33 34 35 36 38 39 37 37 38 38 38 38 37 37 37 37 37 37 36 36 37 36 36 36 36 36 36 36 35 35 35 35 34 34 34 34 33 32 32 31 31 30 30 30 29 28 26 26 25 25 24 23 23 22 22 21 21 21
22 22 22 23 24 24 23 24 26 28 27 26 26 27 27 29 31 32 33 34 33 32 32 32 32 33 33 33 34 35 37 38 39 39 38 39 39 39 39 38 38 38 37 37 37 37 36 36 36 36 36 36 36 36 36 35 35 35 35 34 34 34 34 34 34 33 32 31 31 30 30 30 29 28 27 26 25 25 24 23 23 22 22 22 21 21
22 22 22 23 23 23 24 24 25 28 28 25 25 28 29 29 32 33 34 34 34 33 33 33 33 34 34 34 36 37 38 39 39 39 40 39 39 39 39 39 38 38 37 37 37 36 36 36 36 36 35 35 35 35 35 35 35 35 35 34 34 34 34 34 33 33 32 32 31 30 30 30 29 28 27 26 25 24 24 23 22 22 21 21 21 21
21 21 22 23 22 22 23 23 24 27 27 23 24 28 30 31 33 35 36 36 35 35 34 34 35 35 34 36 37 37 38 39 40 40 40 40 40 40 39 39 39 38 38 37 37 36 36 36 36 35 35 35 35 35 34 35 35 35 34 34 34 34 33 33 33 33 33 32 31 31 30 30 29 28 27 27 26 25 24 23 22 22 21 20 20 20
21 21 22 24 23 22 24 26 28 29 28 26 28 31 33 34 36 36 36 36 37 36 36 36 36 36 36 36 37 38 39 40 40 40 41 41 41 40 40 39 39 39 38 37 37 36 36 36 36 35 35 34 34 34 34 34 34 34 34 34 34 33 33 33 33 33 32 32 31 31 30 30 29 28 28 27 26 25 24 23 22 21 21 20 20 19
22 22 22 24 24 25 27 29 30 31 31 31 32 34 35 36 37 36 36 37 38 38 37 37 37 37 37 37 38 39 39 40 41 41 41 42 42 41 40 40 39 39 38 37 36 36 36 36 36 35 35 34 34 34 34 33 33 34 34 34 33 33 33 33 33 33 32 32 31 31 30 29 28 28 28 27 26 25 24 23 22 21 21 20 20 19
22 22 22 24 24 26 28 29 28 30 33 34 34 35 36 37 37 36 36 37 38 38 38 38 38 38 38 38 38 40 41 41 41 42 42 42 42 42 41 40 40 39 39 38 37 36 35 35 35 35 35 34 33 33 33 33 33 33 33 33 33 33 33 32 32 32 32 31 31 31 30 29 28 28 28 27 27 26 25 24 23 22 21 20 20 20
23 23 24 24 24 25 29 32 32 34 35 36 36 37 37 38 38 37 37 38 39 39 39 38 38 39 39 39 40 41 41 42 42 43 43 43 43 43 42 41 40 39 39 38 37 36 35 35 35 35 34 34 33 33 33 33 33 33 33 33 33 32 32 32 32 31 31 31 31 30 29 29 29 28 28 27 27 27 26 25 24 22 21 21 21 21
23 23 24 25 26 28 31 34 36 36 36 36 36 37 37 38 38 38 38 39 39 39 40 40 39 40 40 41 41 41 42 42 43 44 44 44 43 43 42 41 40 39 39 38 37 36 36 35 35 34 34 34 33 33 32 33 33 32 33 33 32 32 32 32 31 31 30 30 30 29 29 28 28 28 28 27 27 27 26 26 24 23 22 21 21 22
23 24 24 25 27 29 31 34 35 35 36 38 38 38 39 39 39 39 39 40 40 41 41 41 41 41 41 42 42 42 43 43 44 44 44 44 44 43 42 41 40 40 39 38 37 37 36 35 35 34 34 33 33 32 32 32 32 32 32 32 32 31 31 31 31 30 30 29 29 29 28 28 28 28 28 28 28 27 27 27 26 24 23 22 22 23
22 23 22 24 27 30 33 36 37 36 38 41 41 41 41 41 40 41 41 42 42 42 42 41 42 42 43 43 43 43 43 44 44 44 45 45 44 43 42 41 41 40 39 38 37 37 36 35 34 34 33 33 33 32 32 32 31 32 32 32 31 31 31 30 30 29 29 29 28 28 28 28 28 28 28 27 27 27 28 28 27 26 24 23 22 22
Wind_Direction
2 0 2 0 359 360 359 359 357 351 348 347 347 348 347 345 345 346 347 348 350 348 348 351 353 352 351 351 353 353 353 354 353 353 353 351 349 349 351 351 350 349 346 343 340 338 338 336 334 334 334 333 331 328 325 322 320 318 316 314 312 309 305 302 298 295 291 286 283 279 276 273 271 269 268 267 266 264 263 262 260 260 261 259 258 257
3 3 4 0 358 359 357 356 355 352 349 348 349 348 347 346 346 345 346 349 350 347 347 352 353 352 351 351 352 353 353 353 353 353 352 350 350 351 351 351 350 349 346 345 343 342 340 337 336 335 334 333 330 328 326 324 322 320 318 316 313 310 306 302 299 297 294 291 288 285 281 278 274 270 268 267 266 265 265 263 261 260 260 258 257 257
3 4 3 358 356 357 356 356 356 352 350 350 350 348 347 349 348 346 348 349 348 346 347 351 352 351 350 352 353 353 354 353 353 352 350 350 352 352 352 351 350 348 348 348 347 345 342 339 337 336 334 332 331 330 329 328 326 324 321 318 315 311 307 303 299 296 293 290 288 286 284 282 278 274 270 268 266 265 265 263 262 260 259 257 256 256
2 2 359 355 356 358 357 359 357 353 353 354 352 350 348 350 349 347 348 348 346 346 347 349 351 350 350 351 352 353 353 352 351 350 351 353 353 353 352 351 349 349 349 349 349 347 344 341 339 337 335 333 333 333 332 331 329 326 323 320 317 313 309 305 301 298 294 291 289 286 284 283 281 278 275 271 268 266 264 262 261 259 258 257 257 257
2 360 355 353 357 358 357 359 358 354 355 355 353 352 349 349 348 345 346 347 346 348 350 350 350 349 350 350 351 353 352 351 352 352 353 354 353 353 352 350 349 349 350 350 349 348 346 343 340 338 337 336 335 334 333 332 329 326 324 322 319 315 311 307 304 301 299 296 293 290 286 283 282 281 278 276 272 268 265 262 260 260 259 259 259 259
359 357 354 355 358 357 356 358 358 355 355 354 354 354 350 346 346 344 344 346 348 350 350 351 351 350 351 350 350 353 352 352 354 353 353 354 353 352 350 349 349 350 351 350 350 350 348 345 342 341 340 338 336 334 333 332 330 328 326 324 322 318 314 311 308 306 304 300 298 295 290 285 282 281 280 278 277 272 268 265 263 261 261 261 260 259
355 355 356 356 357 357 356 356 357 357 355 353 353 353 348 345 344 343 345 346 348 349 349 354 355 350 349 350 350 353 351 351 353 353 354 355 353 351 351 350 350 350 351 351 351 351 349 348 346 344 343 341 337 335 334 332 331 330 328 326 324 321 317 314 311 308 306 303 300 299 295 290 286 285 283 280 278 275 272 270 267 264 263 263 263 262
352 354 355 355 355 356 355 354 356 357 354 351 352 351 346 345 343 342 345 346 346 348 349 355 354 347 346 350 351 351 351 351 353 354 354 353 351 352 352 351 350 351 351 352 353 353 351 350 348 347 346 343 339 336 334 334 333 332 331 329 327 324 321 318 315 312 309 306 302 301 299 297 294 292 289 285 280 277 274 272 269 268 267 266 266 265
351 351 353 354 355 355 353 351 352 354 352 350 350 349 345 344 342 342 345 345 348 351 352 353 353 348 347 351 351 352 352 351 352 353 351 351 352 352 352 351 351 351 351 352 354 353 353 351 351 350 347 344 341 338 337 336 335 334 333 332 331 329 325 322 319 316 313 309 306 304 303 302 300 297 293 289 284 281 278 275 272 270 270 270 269 267
351 350 350 353 354 352 350 349 349 352 350 347 348 348 346 345 344 345 347 347 350 352 352 353 354 350 348 352 354 353 352 351 351 351 350 351 352 352 352 352 352 352 352 353 354 353 354 353 352 351 348 346 344 342 340 338 336 335 335 334 334 333 330 326 323 320 317 314 311 308 306 305 304 301 297 293 288 284 282 279 276 274 273 272 271 270
353 350 349 352 353 350 347 345 347 348 345 346 349 349 348 348 349 350 349 350 351 351 352 354 354 351 349 353 355 352 351 351 350 350 350 352 352 352 352 353 353 353 353 354 354 354 355 354 354 352 350 348 347 345 342 340 339 338 338 337 337 336 334 331 327 324 321 319 316 313 310 308 306 304 302 298 294 290 286 283 281 278 276 274 272 272
352 349 348 350 351 349 346 346 348 346 345 349 351 351 352 351 352 352 352 353 352 350 352 352 351 350 348 350 351 350 351 351 351 350 351 352 352 352 353 353 353 353 354 355 354 354 355 355 355 354 352 351 349 347 345 343 343 342 341 340 340 339 338 335 331 328 325 323 321 318 315 312 310 307 304 302 299 296 293 289 286 283 280 277 275 274
350 348 347 348 349 348 347 348 351 350 349 352 353 353 354 353 353 354 353 353 350 347 350 349 349 349 346 347 350 350 351 351 352 352 351 351 351 352 353 354 353 354 355 355 354 354 355 355 356 355 354 354 352 350 348 348 347 345 343 343 343 342 341 339 336 332 330 328 326 324 321 318 315 312 309 307 305 302 299 296 292 288 285 282 279 277
348 347 346 346 347 349 349 349 351 350 349 352 354 355 356 355 354 353 351 351 349 346 345 345 347 347 346 347 349 351 352 352 352 352 351 351 352 352 353 353 354 355 355 355 354 354 355 356 356 355 356 356 354 353 351 351 350 347 346 346 346 345 344 342 340 337 334 332 330 328 326 324 322 319 317 315 312 310 307 303 299 295 291 287 283 280
347 345 344 345 345 348 349 349 348 347 347 351 354 356 357 357 355 351 349 348 346 343 342 344 348 348 346 346 349 352 353 352 351 351 351 352 352 352 353 353 354 355 355 354 353 355 357 356 355 356 358 357 355 355 355 353 352 351 349 348 347 347 346 345 343 340 338 335 334 332 330 329 327 325 323 320 318 316 313 309 305 301 297 293 288 284
345 342 344 346 346 347 348 347 345 346 347 348 351 354 355 354 351 347 343 341 340 341 344 348 350 347 345 347 350 352 352 351 349 349 350 352 352 352 353 354 354 355 355 353 352 355 357 356 354 356 358 356 356 358 357 355 354 354 352 350 350 351 350 348 346 343 341 338 336 334 333 332 330 328 326 324 322 320 318 315 312 308 304 300 295 290
345 342 344 347 347 348 348 348 347 348 347 346 349 351 352 351 350 346 342 340 342 344 347 349 347 347 348 348 349 349 349 349 349 349 351 351 351 352 353 353 354 355 355 354 353 355 356 356 355 357 358 356 356 358 358 357 356 355 354 352 352 351 350 349 348 346 344 341 338 336 334 333 332 331 329 328 326 324 322 320 318 315 311 307 302 296
344 340 341 345 345 345 347 349 349 348 346 346 348 348 349 351 352 349 345 345 347 346 347 348 345 345 348 348 348 347 346 347 348 349 350 350 350 352 353 353 354 354 354 354 353 353 355 356 357 357 356 355 355 356 356 357 357 356 357 356 353 351 350 350 349 348 346 343 340 338 336 334 333 332 331 330 329 327 326 325 323 320 317 313 309 303
343 340 341 344 344 344 344 346 346 345 345 348 348 347 349 350 348 348 347 347 348 346 346 348 346 345 346 347 348 346 345 346 347 349 349 349 351 352 352 352 353 353 354 354 353 352 353 357 358 357 355 354 356 356 355 356 357 358 358 357 355 353 352 351 350 349 348 346 343 340 337 335 333 333 332 332 331 330 329 329 328 326 324 321 317 311
343 341 340 343 345 343 341 342 342 342 343 345 345 346 349 348 346 347 348 347 346 345 345 346 347 348 347 347 347 346 345 346 347 349 349 350 351 351 351 352 352 353 353 353 353 351 352 356 357 356 355 355 355 354 354 356 357 357 357 355 354 353 352 352 351 350 349 348 346 342 339 337 335 334 334 333 333 332 332 332 332 331 329 328 325 320
342 339 337 342 345 342 339 340 340 340 341 342 342 343 345 346 347 347 346 347 346 345 345 344 343 344 346 348 348 345 345 346 348 349 349 349 350 350 350 351 351 352 353 353 353 352 353 355 355 354 354 353 352 352 354 356 356 356 355 354 353 352 352 351 350 349 349 349 347 345 343 340 337 336 335 334 334 334 333 334 334 334 333 331 329 326
341 337 335 338 340 339 338 339 339 340 341 341 341 341 341 345 347 345 344 346 346 344 343 341 338 338 344 349 347 345 346 347 348 348 348 349 349 349 350 350 350 351 352 353 353 352 352 352 352 352 352 351 350 351 352 354 355 354 354 353 352 352 351 350 349 348 348 348 347 346 345 342 340 339 337 336 335 335 335 335 335 335 335 333 331 329
340 337 334 334 337 339 340 340 340 342 341 340 340 340 340 342 343 342 342 342 342 340 339 338 336 338 345 347 344 345 348 348 348 349 349 348 348 349 349 349 349 350 351 351 352 351 351 350 351 351 351 350 350 350 350 352 353 352 352 352 352 351 349 348 347 347 346 346 345 345 345 344 343 341 338 337 336 337 337 337 337 337 336 335 333 330
339 337 335 334 336 339 339 338 340 342 340 338 337 337 337 338 340 340 340 340 341 338 338 339 337 338 343 343 341 344 347 347 347 349 348 348 348 348 348 348 349 349 350 350 350 350 350 351 351 350 350 350 349 348 349 349 350 350 350 350 350 349 348 347 346 345 344 344 343 344 344 344 343 341 340 338 337 337 338 339 339 338 338 337 334 331
339 338 337 336 337 338 339 339 339 339 337 335 334 334 335 337 340 340 339 341 340 336 337 340 336 335 340 341 340 343 345 345 347 348 348 347 347 347 347 348 348 348 349 349 349 350 351 351 350 348 348 350 349 348 348 348 348 349 349 349 348 348 347 346 344 343 342 341 341 342 343 343 342 341 340 339 338 338 338 339 340 340 339 338 336 333
337 337 338 338 338 338 337 336 336 335 333 332 332 332 332 334 335 335 337 338 337 335 336 334 329 331 337 339 340 342 343 344 346 347 347 347 346 346 347 347 348 348 348 348 348 349 350 350 349 348 348 349 349 349 348 347 346 347 347 347 346 346 345 345 344 342 340 339 339 339 340 341 341 341 340 340 339 338 338 339 340 340 340 339 337 335
336 336 336 334 332 331 330 329 331 332 329 327 327 327 328 330 329 332 334 332 332 333 331 326 324 327 333 338 340 341 342 344 346 347 346 346 345 346 346 347 347 347 347 347 347 348 349 349 349 348 348 348 348 348 348 346 344 345 346 346 345 345 344 343 343 341 339 338 337 337 338 338 339 339 340 340 340 339 338 338 338 339 340 340 339 337
335 334 335 334 329 328 328 327 328 329 325 323 324 323 325 327 327 328 326 326 333 335 330 329 330 328 331 336 339 339 342 344 346 346 345 345 345 345 346 346 346 346 347 346 347 347 347 348 349 348 347 346 346 347 347 345 344 344 345 344 344 344 343 342 342 341 339 337 336 336 336 336 337 338 339 340 340 339 339 338 338 339 339 340 340 339
334 332 335 337 331 329 329 326 325 326 325 323 323 322 324 324 323 322 320 323 330 328 324 329 332 328 330 336 338 339 342 344 344 344 344 344 344 344 345 345 345 346 346 346 346 347 346 347 348 348 347 347 345 344 344 345 345 345 344 343 343 343 342 342 341 340 339 337 336 335 335 335 335 336 338 339 339 338 338 339 339 339 339 339 340 339
332 332 335 335 331 330 329 326 327 328 327 325 324 323 324 322 319 319 320 324 325 320 321 327 328 327 332 336 336 339 343 343 342 343 343 344 344 344 344 344 345 345 345 345 345 346 345 346 346 347 347 347 346 344 343 344 345 345 344 343 342 342 342 342 340 340 339 337 336 335 334 333 333 334 336 337 337 337 338 339 339 339 339 339 339 339
330 332 334 334 332 332 331 330 331 330 328 327 326 326 325 323 322 321 322 325 325 322 325 328 327 330 336 337 336 339 342 342 342 342 342 343 343 343 343 343 344 344 345 345 345 345 345 345 345 346 346 347 347 346 344 343 344 344 343 343 342 341 341 341 340 339 338 337 336 335 334 333 333 333 334 335 335 336 336 338 338 338 339 339 340 340
330 330 332 334 332 333 336 336 334 332 330 328 328 328 326 325 327 326 327 329 328 326 328 330 329 334 340 340 338 340 342 341 341 341 342 342 342 342 342 342 342 343 344 344 344 344 344 344 345 345 345 346 346 346 345 344 343 342 342 343 343 342 341 340 339 339 338 337 336 335 334 333 332 331 331 332 333 333 335 336 336 337 337 338 339 340
330 330 331 333 330 331 337 338 334 334 335 334 333 333 330 328 328 329 330 329 327 328 331 331 332 336 340 340 339 341 341 341 341 341 341 341 341 341 341 341 342 343 343 344 344 344 344 344 344 344 344 345 345 345 345 345 343 342 342 342 342 342 341 340 339 339 338 337 336 335 334 333 332 331 330 330 330 331 332 333 334 334 335 335 336 339
330 330 330 331 330 331 336 336 336 339 340 339 340 339 336 333 330 330 330 328 328 331 332 331 333 336 338 338 339 340 341 341 340 340 340 339 340 340 339 340 341 342 342 343 343 343 343 343 343 343 344 344 344 345 345 345 344 343 342 342 342 342 342 341 340 339 338 337 336 335 333 333 332 331 330 329 329 329 330 331 331 332 332 333 334 336
328 328 329 330 330 330 334 338 341 341 338 338 341 342 341 339 336 334 332 330 330 331 330 329 332 334 335 336 337 338 339 339 339 339 338 337 338 338 338 339 340 340 341 342 342 342 342 343 343 343 343 343 344 344 344 344 345 344 343 342 342 341 342 341 341 340 339 338 337 335 334 332 331 330 329 328 327 328 329 329 330 330 330 331 331 332
328 328 329 330 330 331 335 340 338 333 333 339 343 343 343 341 339 337 336 335 334 332 330 331 332 333 334 335 336 338 339 339 339 338 336 336 337 338 338 338 339 339 340 341 341 342 342 343 342 342 343 343 343 343 344 344 345 344 344 344 342 342 341 341 341 341 340 339 337 336 335 332 330 328 327 327 326 326 327 328 328 328 329 330 329 330
328 329 330 331 331 332 333 332 330 328 332 339 342 341 341 340 340 339 337 338 340 336 333 334 334 334 335 335 336 338 340 341 340 338 338 339 340 340 339 338 338 338 338 339 340 341 342 342 342 342 343 343 343 343 343 344 344 344 344 344 344 343 342 341 341 341 340 340 339 337 335 333 331 328 326 325 324 323 324 325 326 326 327 328 327 328
328 329 330 330 330 332 331 331 333 333 334 338 340 341 343 343 343 342 336 336 340 338 334 336 336 335 336 336 337 340 342 341 340 341 341 342 341 340 339 338 338 338 338 338 339 340 341 341 341 342 342 342 342 343 343 343 343 343 344 345 345 344 343 342 341 341 340 340 339 338 337 334 332 329 326 324 322 321 320 321 322 323 324 325 325 326
328 328 330 329 328 330 331 330 333 332 331 335 339 341 344 343 343 341 336 335 340 340 337 336 336 336 336 335 337 341 342 339 339 341 341 341 340 340 338 338 337 337 337 337 337 338 339 340 340 341 341 342 342 342 342 342 342 343 343 344 345 344 344 342 342 342 341 340 339 339 338 336 334 331 327 324 322 319 318 318 317 318 319 321 322 323
325 326 327 326 325 327 328 327 328 328 329 335 339 341 342 342 341 341 337 336 338 339 337 336 335 334 334 334 336 340 339 336 337 340 340 339 339 338 337 337 336 336 336 336 336 337 338 338 339 340 341 341 341 341 342 341 341 342 342 343 344 344 344 343 343 342 341 340 339 339 339 338 335 333 330 327 324 321 318 316 314 313 314 316 317 318
324 324 325 325 326 326 325 324 325 327 331 336 339 340 340 339 340 339 335 334 336 335 334 334 332 331 332 332 334 336 334 332 334 337 338 337 337 336 336 336 335 335 334 334 334 335 336 336 337 339 340 340 340 341 341 341 341 341 341 342 342 343 344 344 343 343 342 341 340 339 339 338 337 335 333 330 327 324 321 318 314 312 311 311 312 314
323 325 325 325 327 327 326 324 325 327 333 339 340 339 337 337 336 334 332 333 334 332 332 331 329 330 330 329 329 330 330 331 332 334 334 334 334 335 335 335 334 334 333 333 333 334 334 335 336 337 338 339 340 340 341 341 340 340 340 341 341 342 343 344 344 343 343 342 341 340 339 338 337 336 336 334 331 328 324 321 318 314 310 309 309 310
323 324 324 325 327 328 328 328 328 329 333 339 340 337 334 332 330 330 331 331 331 330 331 330 329 329 329 327 328 328 329 331 331 331 332 333 333 333 333 333 333 333 332 332 332 332 332 333 333 334 337 339 339 339 340 340 340 340 340 339 340 341 342 343 343 344 343 342 341 340 340 339 338 337 337 337 334 331 328 325 322 318 314 310 309 309
322 322 322 325 328 330 328 327 329 330 331 332 332 330 327 324 324 326 327 328 328 328 329 328 328 328 327 326 327 328 329 330 330 330 331 331 331 332 332 332 332 331 331 331 330 331 331 331 331 332 334 336 337 337 338 339 339 339 339 338 339 340 341 342 342 343 343 343 342 341 341 340 339 338 338 338 336 334 331 328 325 323 320 316 313 311
318 320 322 323 323 325 324 322 324 328 329 324 320 320 320 320 321 323 323 324 325 325 326 326 326 326 326 326 327 328 328 329 329 330 330 329 330 330 330 330 330 330 330 330 329 329 330 329 330 330 332 334 335 336 337 337 338 338 338 338 339 339 340 341 341 342 342 343 343 342 342 341 340 340 340 339 338 336 334 331 328 326 324 321 318 315
316 320 324 323 323 324 322 320 319 320 320 318 317 318 319 319 321 322 321 321 322 322 324 324 324 325 325 326 326 326 327 328 329 329 329 329 329 329 329 329 329 329 329 329 329 328 328 328 328 329 329 331 333 334 335 336 336 337 337 338 339 339 339 340 340 341 341 342 343 343 343 342 342 342 342 341 340 339 337 335 331 328 326 324 321 319
320 322 321 321 324 325 324 325 325 321 319 320 320 320 320 320 320 320 320 320 320 321 322 322 323 324 325 324 324 324 325 326 327 328 328 328 328 328 328 327 327 327 327 327 328 327 327 327 327 327 327 328 330 332 334 334 335 335 337 337 338 338 339 339 340 340 341 341 342 343 344 344 343 343 343 342 342 341 340 338 334 330 327 324 323 321
321 323 321 319 320 320 321 324 323 319 319 320 321 321 321 320 320 320 320 320 320 321 321 321 322 323 323 323 322 323 323 325 325 326 327 327 327 327 327 326 326 326 326 326 326 326 326 325 325 325 326 326 328 330 331 333 333 334 335 337 338 338 338 339 339 340 340 341 342 343 344 345 345 344 344 343 343 342 341 340 337 333 329 325 323 321
323 322 320 320 320 320 321 322 321 320 321 322 322 322 323 322 322 321 321 320 320 320 320 320 320 321 321 321 321 321 322 323 324 324 325 326 326 326 326 325 325 325 325 325 325 325 324 324 323 324 324 325 326 327 329 331 332 332 334 335 337 337 337 338 339 340 340 341 342 343 344 346 346 346 345 344 343 344 343 342 340 336 332 328 325 323
323 319 320 321 321 321 323 324 324 325 324 324 324 324 324 323 323 322 321 320 319 318 318 318 318 319 319 319 320 320 320 321 322 323 323 324 324 324 324 325 325 324 324 324 323 323 322 322 322 322 322 324 324 325 326 328 330 331 332 334 335 336 337 337 338 339 340 341 342 343 344 345 346 347 346 345 345 345 344 344 343 341 337 332 329 327
317 316 319 318 316 318 320 322 323 323 321 321 322 323 323 323 322 321 320 319 318 318 318 317 317 317 317 318 318 318 319 320 321 321 322 322 322 323 323 323 324 324 323 323 322 322 321 321 321 321 321 322 323 323 324 326 328 329 330 331 333 335 336 336 337 338 339 341 342 341 342 344 345 346 346 346 346 346 346 346 346 346 343 340 335 332